SCP
-0 0 0 0 0 0 0 0 0 0 1 1 0 0 0 0 0 0 0 0 0 0 0 0 0 0 0 0 0 0 0 0 0 0 0 0 0 0 0 0 0 0 0
-0 0 0 0 0 0 0 0 0 0 1 1 0 0 0 0 0 0 0 0 0 0 0 0 0 0 0 0 0 0 0 0 0 0 0 0 0 0 0 0 0 0 0
0 -0 0 0 0 0 0 0 0 0 0 0 0 0 0 0 0 0 0 0 0 0 0 0 0 0 0 0 0 0 0 0 0 0 0 0 0 0 0 0 0 0 0
0 0 0 0 0 0 0 0 0 0 0 0 0 0 0 0 0 0 0 0 0 0 0 0 0 0 0 0 0 0 0 0 0 0 0 0 0 0 0 0 0 0 0
0 0 0 0 0 1 1 0 0 0 0 0 0 0 0 0 0 0 0 0 0 0 0 0 0 0 0 0 0 0 0 0 0 0 0 0 0 0 0 0 0 0 0
0 0 0 1 1 1 1 1 0 0 0 0 0 0 0 0 0 0 0 1 1 1 0 0 0 0 0 0 0 0 0 0 0 0 0 0 0 0 0 0 0 0 0
1 1 1 1 1 1 1 1 1 0 0 0 0 0 0 0 0 0 1 1 1 1 1 1 1 0 0 0 0 0 0 0 0 0 0 0 0 0 0 0 0 0 0
1 1 1 1 1 1 1 1 1 1 1 0 0 1 1 1 1 1 1 1 1 1 1 1 1 1 1 0 0 1 0 0 0 0 0 0 0 1 1 0 0 0 0
1 1 1 1 1 1 1 1 1 1 1 1 1 1 1 1 1 1 1 1 1 1 1 1 1 1 1 1 1 1 1 0 0 0 0 0 0 1 1 1 0 0 0
0 1 1 1 1 1 1 0 0 0 0 0 1 1 1 1 1 1 1 1 1 1 1 1 1 1 1 1 1 1 1 0 0 0 0 0 1 1 1 1 1 0 0
0 0 0 0 0 0 0 0 0 0 0 0 0 1 1 1 0 0 1 1 1 1 1 1 1 0 1 1 0 1 0 0 0 0 0 0 1 1 1 1 1 1 0
0 0 0 0 0 0 0 0 0 0 0 0 0 0 0 0 0 0 0 0 0 1 1 1 1 1 1 0 0 0 0 0 0 0 0 0 1 1 1 1 1 1 1
0 0 0 0 0 0 0 0 0 0 0 0 0 0 0 0 0 0 0 0 0 1 1 1 1 1 0 0 0 0 0 0 0 0 0 0 1 1 1 1 1 1 1
0 0 0 0 0 0 0 0 0 0 0 0 0 0 0 0 0 0 0 0 0 0 0 0 0 0 0 0 0 0 0 0 0 0 0 1 1 1 1 1 1 1 1
0 0 0 0 0 0 0 0 0 0 0 0 0 0 0 0 0 0 0 0 0 0 0 0 0 0 0 0 0 0 0 0 0 0 0 1 1 1 1 1 1 1 1
0 0 0 0 0 0 0 0 0 0 0 0 0 0 0 0 0 0 0 0 0 0 0 0 0 0 0 0 0 0 0 0 0 0 0 1 1 1 1 1 1 1 1
0 0 0 0 0 0 0 0 0 0 0 0 0 0 0 0 0 0 0 0 0 0 0 0 0 0 0 0 0 0 0 0 0 0 1 1 1 1 1 1 1 1 1
0 0 0 0 0 0 0 0 0 0 0 0 0 0 0 0 0 0 0 0 0 0 0 0 0 0 0 0 0 0 0 0 0 0 0 0 0 1 1 1 1 1 1
0 0 0 0 0 0 0 0 0 0 0 0 0 0 0 0 0 0 0 0 0 0 0 0 0 0 0 0 0 0 0 0 0 0 0 0 0 0 0 1 1 1 1
0 0 0 0 0 0 0 0 0 0 0 0 0 0 0 0 0 0 0 0 0 0 0 0 0 0 0 0 0 0 0 0 0 0 0 0 0 0 0 0 0 1 1
0 0 0 0 0 0 0 0 0 0 0 0 0 0 0 0 0 0 0 0 0 0 0 0 0 0 0 0 0 0 0 0 0 0 0 0 0 0 0 0 0 0 0
0 0 0 0 0 0 0 0 0 0 0 0 0 0 0 0 0 0 0 0 0 0 0 0 0 0 0 0 0 0 0 0 0 0 0 0 0 0 0 0 0 0 0
0 0 0 0 0 0 0 0 0 0 0 0 0 0 0 0 0 0 0 0 0 0 0 0 0 0 0 0 0 0 0 0 0 0 0 0 0 0 0 0 0 0 0
0 0 0 0 0 0 0 0 0 0 0 0 0 0 0 0 0 0 0 0 0 0 0 0 0 0 0 0 0 0 0 0 0 0 0 0 0 0 0 0 0 0 0
0 0 0 0 0 0 0 0 0 0 0 0 0 0 0 0 0 0 0 0 0 0 0 0 0 0 0 0 0 0 0 0 0 0 0 0 0 0 0 0 0 0 0
0 0 0 0 0 0 0 0 0 0 0 0 0 0 0 0 0 0 0 0 0 0 0 0 0 0 0 0 0 0 0 0 0 0 0 0 0 0 0 0 0 0 0
Wind_Speed
3 6 12 13 12 11 10 9 8 6 6 8 7 6 5 5 5 5 5 5 5 4 3 3 3 3 3 4 5 6 6 7 7 7 7 6 7 9 9 7 7 6 8
6 7 12 14 13 12 11 10 9 8 7 7 6 6 6 5 5 6 6 6 6 6 5 5 4 4 3 4 4 4 5 6 5 5 4 4 6 8 9 9 8 5 8
8 8 10 14 14 13 12 10 9 9 8 7 7 6 5 5 4 4 6 7 8 8 7 6 5 5 5 4 5 5 6 6 5 4 3 2 3 7 9 9 9 9 9
10 9 9 14 14 13 12 10 10 10 9 8 8 6 5 4 4 2 3 6 8 8 8 7 5 4 5 4 5 5 6 6 4 3 2 2 3 7 9 9 9 9 9
8 9 11 15 14 13 12 11 10 10 9 8 7 7 7 5 4 3 3 4 5 7 7 6 5 5 5 5 5 6 7 7 5 2 1 2 4 9 10 10 10 10 10
6 6 7 13 12 10 10 10 10 10 10 9 7 7 8 7 6 4 4 4 4 4 5 6 5 5 5 5 6 7 7 7 5 2 1 1 5 11 12 11 10 10 10
3 3 4 8 8 8 8 9 9 9 9 9 8 8 8 8 7 6 6 5 4 3 3 4 5 5 6 6 6 7 7 7 4 3 2 2 6 12 13 12 10 9 9
6 4 3 6 6 7 7 7 8 9 9 8 8 8 7 8 8 8 7 6 4 4 4 4 4 5 6 7 7 7 7 7 5 5 4 3 8 13 14 13 11 10 9
5 4 2 1 3 5 6 6 7 7 7 7 8 8 7 7 9 9 8 7 7 7 6 4 3 4 5 6 7 7 8 9 5 4 4 3 10 14 14 14 12 11 9
7 6 3 2 1 2 4 6 6 6 7 7 8 7 7 6 7 8 6 7 8 8 8 7 5 5 5 6 6 6 8 7 5 4 3 4 11 14 15 14 13 11 10
8 6 5 4 3 3 4 6 7 7 8 8 6 7 6 4 4 5 6 9 10 10 9 9 9 8 7 6 7 7 6 3 4 3 3 6 13 15 15 15 13 12 11
9 8 6 6 5 5 3 2 2 3 4 5 4 5 4 4 4 6 8 12 12 13 12 12 12 10 8 4 5 7 3 5 5 4 4 9 14 15 16 15 14 13 13
10 11 10 8 7 7 4 3 2 3 3 4 5 5 4 4 4 5 3 5 7 9 6 6 7 5 5 4 4 4 5 5 4 4 6 12 15 17 16 16 16 15 14
15 17 15 13 12 9 6 4 3 3 3 3 3 4 3 3 3 3 3 4 3 3 4 4 3 5 6 7 7 6 6 5 5 4 5 13 15 16 17 18 17 16 15
18 18 16 16 16 13 10 7 5 4 4 3 3 3 3 2 3 3 3 3 3 3 3 3 4 5 6 7 7 7 8 8 7 6 5 13 15 15 17 19 19 18 17
15 15 15 15 16 14 12 11 9 8 6 5 4 5 4 3 3 3 3 3 3 3 4 4 5 4 4 5 6 7 7 7 8 9 7 10 16 16 18 19 20 19 18
12 14 16 14 16 15 14 13 10 9 10 8 6 5 4 3 3 3 3 3 4 4 4 4 5 3 3 4 5 6 6 7 7 9 9 7 9 14 16 18 20 20 20
11 13 14 14 15 14 12 12 10 10 10 9 9 8 7 5 4 3 3 4 4 4 4 4 5 4 4 3 4 4 4 5 7 8 7 7 7 7 11 15 17 20 21
8 9 11 11 12 11 10 9 9 10 10 10 10 10 11 9 5 3 3 4 5 4 4 5 5 4 4 4 4 4 4 4 5 6 6 7 7 7 7 11 14 16 18
8 8 8 9 10 10 8 8 7 9 10 10 10 13 17 12 9 4 4 5 4 4 4 4 5 4 4 3 3 3 3 4 4 4 5 5 6 8 7 7 7 9 14
11 10 10 10 10 8 6 7 7 8 9 9 9 13 15 16 14 9 5 5 4 4 5 5 4 5 4 2 2 2 3 3 3 3 4 4 5 7 7 8 6 5 5
13 12 12 11 11 10 6 4 3 3 4 5 6 9 12 15 15 13 10 6 5 4 5 4 4 3 3 3 3 2 3 4 2 2 2 3 4 3 5 6 6 7 5
14 15 14 14 15 13 10 5 4 3 4 5 8 11 12 16 16 15 14 9 6 5 4 5 5 5 4 2 3 3 3 4 2 3 1 1 2 3 3 4 6 6 6
13 12 13 14 14 14 11 7 7 6 5 5 7 9 14 15 16 17 16 11 7 5 5 5 4 4 5 3 2 2 2 3 2 1 3 3 2 1 2 3 4 5 5
12 11 12 13 13 13 11 10 8 7 6 7 8 10 11 13 15 17 17 12 9 5 6 6 4 4 4 4 4 3 2 1 2 2 0 3 3 3 1 2 4 4 5
11 11 13 14 12 12 12 12 10 10 12 14 13 12 11 11 11 15 17 15 11 7 6 6 6 6 4 4 3 3 4 3 3 3 2 1 1 2 2 1 2 4 4
Wind_Direction
175 173 173 169 169 168 165 165 163 154 126 131 138 149 155 163 167 162 157 155 161 172 181 174 168 163 150 132 131 136 132 119 109 102 99 104 110 111 102 90 103 96 95
162 170 174 173 174 174 175 176 172 169 155 146 156 166 171 179 187 191 197 197 194 196 200 200 195 188 181 159 157 147 137 129 127 116 106 113 123 123 115 103 104 104 97
150 170 177 176 177 178 180 181 178 177 174 172 176 176 178 188 191 209 212 211 210 208 208 208 202 193 195 180 175 172 161 153 154 142 123 121 145 135 126 116 110 106 102
157 171 178 180 180 181 181 185 187 186 188 189 186 183 184 187 189 219 232 221 214 213 216 218 211 203 205 196 189 188 182 176 176 164 140 184 191 149 135 124 114 111 107
163 175 181 181 182 182 184 190 195 195 200 201 197 197 199 203 209 223 235 210 204 205 206 208 205 206 207 208 209 207 200 190 198 194 211 231 193 161 146 134 122 117 111
174 178 180 180 180 183 190 198 203 204 210 208 207 213 209 204 211 220 193 158 153 169 180 185 193 203 210 216 221 221 214 204 200 201 263 230 171 164 153 144 135 127 119
123 136 163 179 180 186 197 207 212 215 223 216 217 219 215 205 207 210 188 163 167 187 190 189 199 211 220 225 226 223 222 221 199 211 226 203 184 169 159 154 150 141 130
112 119 144 178 181 190 205 217 222 225 233 233 237 223 227 224 212 216 203 184 198 218 221 220 224 227 231 234 232 224 217 219 211 216 221 211 197 177 168 164 163 159 150
105 99 94 167 187 196 212 228 236 235 235 239 252 234 223 236 226 221 215 207 214 224 227 230 245 252 247 246 240 229 220 220 209 212 225 210 199 183 177 172 172 172 168
58 60 42 355 308 258 240 234 232 235 233 235 254 240 225 240 246 231 221 204 210 218 218 215 222 246 258 260 252 240 230 226 217 218 223 221 208 191 185 179 177 179 178
43 39 39 34 1 295 259 245 236 234 233 232 233 230 228 233 243 242 233 218 216 211 209 213 218 226 232 242 245 245 237 218 217 223 221 228 208 196 189 183 180 180 180
20 17 16 14 17 14 348 285 264 262 257 242 227 227 224 221 230 235 241 233 231 215 211 218 224 229 229 234 244 247 231 218 214 219 218 225 213 203 195 186 183 182 182
7 8 2 6 12 17 5 3 339 314 284 260 249 243 239 238 240 238 237 235 228 220 221 233 238 228 222 226 236 240 233 226 220 219 216 217 215 212 203 192 187 186 187
19 13 7 9 8 5 2 354 336 319 315 301 287 278 252 252 256 245 223 222 221 222 225 232 234 234 230 231 235 237 235 231 226 223 222 213 208 209 204 196 191 192 194
21 13 10 16 12 5 1 353 346 335 330 317 308 303 277 259 263 259 243 231 224 224 229 235 236 238 239 240 239 236 231 227 226 223 220 213 205 204 205 202 198 197 198
18 12 7 16 12 12 11 2 353 345 333 328 326 318 310 293 282 275 267 257 246 236 231 232 235 233 236 236 241 238 234 229 227 223 215 211 208 204 207 207 205 203 203
14 12 10 13 11 11 9 5 1 355 347 337 327 319 312 301 293 279 269 263 256 251 248 246 249 243 248 252 254 248 237 226 218 214 208 201 205 208 209 211 210 209 208
15 11 7 9 9 8 8 3 360 357 357 350 337 322 304 285 267 253 249 256 258 256 249 246 244 243 244 249 258 257 247 229 217 211 201 197 196 201 210 214 213 213 214
7 8 5 4 5 1 359 0 360 357 356 351 345 337 320 300 275 240 244 258 264 257 248 247 238 221 232 247 256 258 254 243 229 218 206 199 197 197 199 210 214 218 217
356 359 4 4 1 357 353 353 358 0 356 350 348 345 337 322 301 267 249 265 269 261 260 249 240 223 217 230 253 266 259 249 242 231 219 206 201 201 199 201 209 223 222
354 351 350 351 344 343 346 348 353 355 349 344 343 342 340 336 324 302 266 253 248 246 251 247 235 227 223 199 213 280 293 269 244 239 230 216 211 205 196 199 200 205 217
345 344 342 339 329 326 320 311 314 318 312 314 320 333 336 333 328 320 293 261 238 236 248 242 226 214 207 179 178 205 297 318 307 281 242 225 220 206 202 195 190 193 192
356 355 352 343 338 333 326 314 314 311 309 337 343 340 336 331 324 323 306 277 242 218 222 223 214 193 192 192 176 168 189 239 299 329 340 233 196 193 192 180 180 178 172
359 357 352 345 343 341 340 334 337 345 338 332 330 327 327 326 324 322 318 295 260 223 212 217 204 188 170 176 165 156 169 173 184 319 343 2 359 144 158 151 150 149 149
346 349 346 340 338 338 340 339 340 342 332 328 328 323 321 320 319 318 316 308 283 249 216 205 189 174 169 168 165 155 134 107 129 139 291 338 353 356 29 135 133 134 138
345 346 343 341 339 342 348 354 352 344 337 333 331 324 321 316 312 310 314 311 298 274 232 201 187 172 167 164 164 157 154 156 170 153 165 232 300 319 339 24 129 134 138